Hourly Data Report for September 09, 2016

SHEARWATER RCS
NOVA SCOTIA

44°37'47.000" N
63°30'48.000" W
24.00 m
8205092
71264
AAW

Download Data

Hourly Data (September 2016)
Hourly Data Report for September 9, 2016
TIME Temp Definition
°C
Dew Point Definition
°C
Rel Hum Definition
%
Wind Dir Definition
10's deg

Wind Spd Definition
km/h
Visibility Definition
km
Stn Press Definition
kPa
Hmdx Definition


Wind Chill Definition


Weather Definition


00:00 20.5 19.2 92 18 11   101.04 27   LegendNANA
01:00 20.4 18.9 91 17 17   100.97 27   LegendNANA
02:00 20.2 18.8 92 17 12   100.91 27   LegendNANA
03:00 20.2 19.0 93 18 16   100.82 27   LegendNANA
04:00 20.2 19.2 94 17 19   100.72 27   LegendNANA
05:00 20.6 19.5 94 19 20   100.73 28   LegendNANA
06:00 20.3 19.0 92 21 15   100.74 27   LegendNANA
07:00 19.8 18.6 93 20 19   100.67     LegendNANA
08:00 19.4 18.3 93 22 20   100.70     LegendNANA
09:00 19.8 18.3 91 23 14   100.68     LegendNANA
10:00 21.0 18.5 86 22 17   100.64 27   LegendNANA
11:00 20.3 18.2 88 21 10   100.61 26   LegendNANA
12:00 20.7 18.5 87 20 11   100.57 27   LegendNANA
13:00 21.6 18.5 82 23 12   100.57 28   LegendNANA
14:00 21.7 19.1 85 21 17   100.49 29   LegendNANA
15:00 23.4 19.6 79 24 10   100.50 31   LegendNANA
16:00 23.7 19.9 80 25 7   100.53 31   LegendNANA
17:00 24.4 20.1 77 25 8   100.52 32   LegendNANA
18:00 23.8 19.7 78 24 7   100.56 31   LegendNANA
19:00 21.7 19.2 86 22 7   100.64 29   LegendNANA
20:00 20.5 18.6 89 23 5   100.75 27   LegendNANA
21:00 20.2 18.7 91 20 2   100.82 27   LegendNANA
22:00 19.7 18.3 92 31 3   100.86     LegendNANA
23:00 20.7 19.0 90 29 3   100.89 27   LegendNANA

Notes on Data Quality.

Legend

  • E = Estimated
  • M = Missing
  • NA = Not Available*
  • [empty] = Indicates an unobserved value
Date modified: